Theta_e
291 291 290 289 288 288 288 288 287 286 286 286 285 285 285 285 285 285 285 286 287 287 286 286 286 287 286 286 287 286 286 286
291 290 290 289 288 286 286 287 286 286 285 284 284 284 284 284 284 283 284 285 285 285 285 284 284 284 284 285 285 283 283 283
291 290 289 288 287 286 285 286 285 285 284 284 283 283 282 282 282 283 283 284 285 284 283 283 283 283 283 283 282 281 281 281
289 289 289 288 286 286 285 284 285 284 283 282 282 281 281 281 281 282 282 282 284 283 282 282 282 281 282 281 280 280 280 279
289 289 288 288 287 285 284 284 284 283 282 282 281 281 280 281 281 281 281 281 282 282 281 281 281 281 281 281 279 279 279 280
290 290 289 287 286 285 285 284 283 283 282 281 281 280 279 279 280 280 280 280 281 281 280 280 280 281 280 280 279 278 278 279
290 290 289 288 288 286 286 284 283 282 282 280 280 279 279 279 279 279 280 279 280 280 280 280 281 283 283 280 279 279 278 277
291 291 290 289 288 286 286 282 282 281 280 280 279 279 279 279 278 278 278 278 279 279 279 279 280 283 281 281 278 277 276 276
291 291 290 289 287 285 283 281 281 280 280 279 279 278 278 278 278 277 277 277 277 278 278 278 280 282 280 279 277 276 275 276
292 290 289 288 286 283 280 279 279 279 279 278 278 278 277 277 276 276 276 276 277 278 278 278 279 282 280 278 276 276 275 275
287 285 285 284 282 281 279 278 277 278 277 278 278 277 277 276 276 276 277 277 278 278 278 277 277 281 279 278 277 275 275 275
281 282 281 279 279 279 277 277 277 277 276 276 277 276 277 276 276 276 276 277 276 276 276 276 275 277 280 278 276 276 275 274
278 278 276 277 277 277 276 275 274 274 274 274 274 276 276 275 275 275 276 275 274 274 273 274 274 276 278 277 276 275 274 273
277 276 274 275 276 275 273 273 272 272 271 271 273 274 275 274 273 273 274 273 273 273 272 271 272 273 275 276 276 274 273 274
272 272 271 270 274 273 272 271 271 270 270 271 271 271 272 273 273 273 272 272 272 272 271 270 270 270 271 271 273 275 273 273
272 272 271 269 268 268 269 270 269 269 269 270 270 270 270 271 271 272 272 274 271 271 271 269 269 270 272 271 271 271 272 266
271 269 267 266 265 265 267 269 269 268 269 268 269 269 269 269 268 275 274 276 276 275 272 271 272 273 274 274 275 275 274 261
269 266 265 263 263 260 262 266 267 267 267 267 267 267 267 267 268 267 271 275 275 275 275 274 272 274 274 274 274 274 270 256
265 264 263 262 262 260 260 263 263 264 266 267 267 267 267 267 267 267 266 265 266 271 271 271 271 272 272 272 270 258 260 249
261 260 261 261 260 258 260 263 263 265 266 266 266 267 267 266 266 266 265 264 263 260 263 261 265 268 269 270 255 253 251 249
Wind_Speed
3 5 5 5 6 7 7 7 6 6 5 4 5 5 5 5 5 5 3 3 4 4 4 3 4 4 4 3 4 5 4 4
4 6 7 5 6 6 6 6 6 6 6 6 5 5 5 5 5 5 4 4 4 4 4 3 3 4 4 5 5 6 5 5
6 6 6 7 7 7 7 7 6 6 5 5 5 5 5 5 4 4 5 3 4 4 4 4 4 4 4 5 5 5 5 5
5 8 9 8 8 7 7 7 7 7 6 6 6 5 5 5 4 4 5 5 5 5 4 4 4 5 5 5 5 5 5 5
6 7 7 7 7 8 8 8 7 7 7 7 7 6 6 5 5 5 4 5 5 5 5 4 5 5 5 5 5 5 5 5
5 7 7 7 7 8 9 9 9 9 9 8 6 6 6 6 5 6 5 5 5 6 5 5 5 4 5 6 6 6 5 5
8 7 8 10 11 8 10 10 10 11 10 8 8 8 7 6 6 6 5 5 5 5 5 4 3 8 9 7 6 5 5 4
11 10 9 9 9 11 10 7 10 10 9 10 10 9 8 7 7 7 7 6 5 6 6 5 4 8 8 8 5 5 5 4
9 8 9 5 7 6 8 10 11 10 9 9 10 10 9 8 8 6 5 6 6 6 6 5 5 9 8 8 5 5 5 4
9 6 4 6 5 7 7 7 8 10 11 11 11 11 10 10 9 6 6 6 7 8 8 7 6 12 10 8 5 5 5 4
6 4 4 3 4 6 7 7 8 8 8 9 10 11 11 11 11 8 8 8 7 8 7 7 6 12 10 7 5 5 4 4
5 6 4 4 6 6 6 9 5 7 8 9 10 10 10 10 7 9 9 8 7 7 7 6 5 6 10 8 4 3 4 3
4 5 3 5 6 6 7 5 7 7 7 7 7 7 8 10 7 8 8 8 7 8 6 5 5 6 9 8 6 4 3 4
6 6 5 6 6 6 5 7 7 7 7 7 7 7 8 10 9 8 8 8 8 8 7 6 4 2 8 9 8 4 2 3
5 6 6 5 6 5 9 9 9 9 8 8 9 7 7 6 7 7 7 7 7 7 6 5 5 4 3 4 4 6 4 5
5 5 5 3 3 5 8 9 9 8 8 8 6 7 6 4 6 6 4 8 7 6 6 7 6 6 8 7 4 4 5 5
6 4 3 3 3 4 6 9 10 9 7 7 7 6 5 6 4 9 9 11 11 12 7 3 5 9 10 12 12 11 10 3
6 5 6 4 5 3 3 7 8 8 8 6 7 7 7 6 7 7 6 9 10 11 11 10 6 8 8 10 11 8 8 3
4 5 6 7 8 5 4 5 6 6 9 7 6 6 7 7 6 5 6 6 3 2 5 4 6 8 9 9 4 1 2 2
3 4 5 5 6 5 5 8 8 7 6 6 6 5 6 5 5 5 5 4 3 2 2 3 2 5 8 11 3 4 3 3
Wind_Direction
203 180 177 171 172 176 174 172 167 154 154 157 153 137 134 132 137 138 129 109 122 110 96 85 75 83 87 82 76 83 68 69
196 187 185 179 178 182 176 173 178 176 170 160 164 157 145 142 144 143 132 130 130 123 106 84 78 74 87 81 79 84 84 74
194 188 190 199 191 192 188 189 186 174 168 178 165 160 153 151 150 140 137 126 134 120 110 99 84 75 88 87 92 98 91 82
188 203 206 201 196 195 196 194 186 176 175 175 179 172 166 157 154 150 142 135 128 127 127 119 108 99 87 95 89 79 77 73
214 225 219 210 203 199 199 193 182 175 181 186 178 177 171 156 148 146 146 144 143 136 129 124 115 109 103 105 99 89 76 78
231 227 220 216 209 205 207 191 181 187 190 192 165 162 155 156 157 151 155 158 149 139 135 133 135 132 123 119 111 104 92 85
260 242 216 215 218 207 213 199 178 193 198 167 165 161 166 161 161 154 149 148 145 142 137 131 117 138 132 121 115 113 114 113
245 238 230 211 204 209 210 159 184 192 180 176 168 168 168 161 157 158 158 146 152 149 147 137 124 136 125 127 119 118 112 104
238 243 246 226 199 189 168 177 185 189 181 171 171 171 163 159 161 149 149 156 153 152 146 140 148 142 138 131 117 115 109 115
232 229 235 237 223 183 171 168 173 186 185 178 173 166 161 165 163 156 151 158 160 162 159 157 156 160 157 154 152 149 138 139
201 191 207 229 164 167 178 169 195 180 172 164 165 166 172 170 166 165 165 165 166 163 161 155 154 171 163 158 167 172 168 168
189 222 219 160 156 188 173 208 168 145 148 163 168 170 167 160 160 158 162 158 159 159 153 142 141 179 172 173 176 195 181 206
197 206 178 170 166 183 198 158 142 142 147 149 148 152 149 149 148 155 158 157 156 148 144 150 145 173 193 185 183 192 209 207
201 195 197 192 183 177 167 141 130 131 134 138 138 141 150 153 154 154 160 164 165 168 162 159 153 147 198 196 204 189 224 240
173 201 208 203 186 175 159 148 145 145 145 144 145 144 147 150 155 160 167 167 167 172 176 167 155 172 183 199 228 219 227 169
200 215 225 184 166 157 153 146 148 145 151 152 146 153 141 142 161 167 164 175 170 172 167 166 183 194 196 195 190 208 204 121
216 215 204 198 188 182 160 153 152 150 155 156 153 146 143 140 145 171 168 178 184 180 164 153 178 198 207 213 230 231 165 105
205 173 166 177 197 218 159 147 157 157 147 156 156 139 147 152 160 147 160 172 182 175 178 179 195 214 221 232 240 232 161 140
169 180 174 179 200 198 159 134 131 130 146 152 150 154 153 163 164 155 159 155 132 206 127 164 212 224 236 237 255 37 116 151
145 160 163 168 209 204 173 149 144 143 145 139 143 158 150 140 136 138 140 147 139 108 143 27 276 261 251 251 139 186 202 201